TimeEDT,TemperatureF,Dew PointF,Humidity,Sea Level PressureIn,VisibilityMPH,Wind Direction,Wind SpeedMPH,Gust SpeedMPH,PrecipitationIn,Events,Conditions,WindDirDegrees,DateUTC
12:14 AM,57.2,53.6,88,29.99,7.0,Calm,Calm,-,N/A,,Scattered Clouds,0,2012-10-23 04:14:00
12:34 AM,57.2,55.4,94,29.99,7.0,Calm,Calm,-,N/A,,Overcast,0,2012-10-23 04:34:00
1:14 AM,57.2,55.4,94,29.98,7.0,Calm,Calm,-,0.01,Rain,Light Rain,0,2012-10-23 05:14:00
1:34 AM,59.0,55.4,88,29.99,3.0,Calm,Calm,-,0.06,Rain,Heavy Rain,0,2012-10-23 05:34:00
1:54 AM,59.0,55.4,88,29.99,2.5,Calm,Calm,-,0.29,Rain,Heavy Rain,0,2012-10-23 05:54:00
2:15 AM,59.0,55.4,88,29.97,4.0,East,4.6,-,0.02,Rain,Light Rain,100,2012-10-23 06:15:00
2:34 AM,59.0,57.2,94,29.95,7.0,SSE,8.1,-,0.02,Rain,Rain,150,2012-10-23 06:34:00
2:54 AM,60.8,55.4,82,29.94,10.0,SSE,9.2,-,0.03,,Overcast,150,2012-10-23 06:54:00
3:15 AM,60.8,55.4,82,29.94,10.0,SSE,9.2,16.1,N/A,,Mostly Cloudy,150,2012-10-23 07:15:00
3:34 AM,59.0,55.4,88,29.92,10.0,SSE,9.2,-,N/A,,Mostly Cloudy,160,2012-10-23 07:34:00
3:54 AM,59.0,55.4,88,29.92,10.0,South,8.1,-,N/A,,Overcast,190,2012-10-23 07:54:00
4:14 AM,59.0,55.4,88,29.91,10.0,South,11.5,-,N/A,,Overcast,180,2012-10-23 08:14:00
4:34 AM,59.0,55.4,88,29.91,10.0,South,8.1,-,N/A,,Overcast,180,2012-10-23 08:34:00
4:54 AM,59.0,55.4,88,29.91,10.0,SSW,13.8,-,N/A,,Overcast,200,2012-10-23 08:54:00
5:14 AM,60.8,55.4,82,29.91,10.0,South,16.1,-,N/A,,Overcast,190,2012-10-23 09:14:00
5:34 AM,60.8,55.4,82,29.91,10.0,South,9.2,-,N/A,,Overcast,190,2012-10-23 09:34:00
5:54 AM,59.0,55.4,88,29.91,10.0,South,8.1,-,N/A,,Overcast,190,2012-10-23 09:54:00
6:14 AM,60.8,55.4,82,29.92,10.0,South,6.9,-,N/A,,Overcast,190,2012-10-23 10:14:00
6:34 AM,60.8,55.4,82,29.91,10.0,South,5.8,-,N/A,,Overcast,190,2012-10-23 10:34:00
6:54 AM,60.8,55.4,82,29.92,10.0,South,4.6,-,N/A,,Overcast,190,2012-10-23 10:54:00
7:34 AM,60.8,55.4,82,29.93,10.0,South,3.5,-,N/A,,Overcast,190,2012-10-23 11:34:00
7:54 AM,60.8,55.4,82,29.93,10.0,South,4.6,-,N/A,,Overcast,190,2012-10-23 11:54:00
8:14 AM,60.8,55.4,82,29.93,10.0,SSW,3.5,-,N/A,,Overcast,200,2012-10-23 12:14:00
8:33 AM,62.6,55.4,77,29.93,10.0,SSW,4.6,-,N/A,,Overcast,210,2012-10-23 12:33:00
8:54 AM,62.6,55.4,77,29.94,10.0,SSW,6.9,-,N/A,,Overcast,210,2012-10-23 12:54:00
9:14 AM,62.6,55.4,77,29.94,10.0,SW,5.8,-,N/A,,Overcast,230,2012-10-23 13:14:00
9:34 AM,62.6,55.4,77,29.95,10.0,SW,6.9,-,N/A,,Overcast,220,2012-10-23 13:34:00
9:54 AM,62.6,55.4,77,29.96,10.0,SW,6.9,-,N/A,,Overcast,230,2012-10-23 13:54:00
10:15 AM,62.6,55.4,77,29.96,10.0,SW,5.8,-,N/A,,Overcast,230,2012-10-23 14:15:00
10:34 AM,64.4,55.4,73,29.96,10.0,SW,6.9,-,N/A,,Overcast,230,2012-10-23 14:34:00
10:54 AM,64.4,55.4,73,29.96,10.0,WSW,5.8,-,N/A,,Overcast,250,2012-10-23 14:54:00
11:14 AM,64.4,55.4,73,29.97,10.0,WSW,5.8,-,N/A,,Overcast,240,2012-10-23 15:14:00
11:54 AM,64.4,57.2,77,29.97,10.0,WSW,6.9,-,N/A,,Overcast,250,2012-10-23 15:54:00
12:14 PM,64.4,57.2,77,29.97,10.0,WSW,5.8,-,N/A,,Overcast,250,2012-10-23 16:14:00
12:34 PM,64.4,57.2,77,29.97,10.0,WSW,5.8,-,N/A,,Overcast,250,2012-10-23 16:34:00
12:54 PM,64.4,55.4,73,29.98,10.0,WSW,5.8,-,N/A,,Overcast,250,2012-10-23 16:54:00
1:14 PM,64.4,55.4,73,29.98,10.0,WSW,8.1,-,N/A,,Overcast,250,2012-10-23 17:14:00
1:34 PM,66.2,57.2,73,29.96,10.0,West,4.6,-,N/A,,Overcast,270,2012-10-23 17:34:00
1:54 PM,66.2,57.2,73,29.96,10.0,West,5.8,-,N/A,,Overcast,260,2012-10-23 17:54:00
2:34 PM,68.0,57.2,68,29.94,10.0,WNW,4.6,-,N/A,,Scattered Clouds,290,2012-10-23 18:34:00
2:54 PM,69.8,57.2,64,29.93,10.0,WNW,6.9,-,N/A,,Clear,290,2012-10-23 18:54:00
3:14 PM,69.8,57.2,64,29.92,10.0,WNW,4.6,-,N/A,,Clear,300,2012-10-23 19:14:00
3:34 PM,69.8,57.2,64,29.92,10.0,NW,5.8,-,N/A,,Scattered Clouds,320,2012-10-23 19:34:00
3:54 PM,69.8,57.2,64,29.93,10.0,South,3.5,-,N/A,,Mostly Cloudy,180,2012-10-23 19:54:00
4:14 PM,64.4,55.4,73,29.94,10.0,SSE,6.9,-,N/A,,Clear,160,2012-10-23 20:14:00
4:34 PM,62.6,55.4,77,29.95,10.0,South,9.2,-,N/A,,Clear,180,2012-10-23 20:34:00
4:54 PM,62.6,55.4,77,29.95,10.0,South,6.9,-,N/A,,Clear,180,2012-10-23 20:54:00
5:14 PM,62.6,57.2,82,29.96,10.0,SSE,9.2,-,N/A,,Clear,160,2012-10-23 21:14:00
5:34 PM,62.6,57.2,82,29.97,10.0,South,5.8,-,N/A,,Clear,170,2012-10-23 21:34:00
5:54 PM,60.8,57.2,88,29.97,10.0,South,3.5,-,N/A,,Scattered Clouds,170,2012-10-23 21:54:00
6:15 PM,60.8,57.2,88,29.97,10.0,South,6.9,-,N/A,,Mostly Cloudy,180,2012-10-23 22:15:00
6:34 PM,60.8,55.4,82,29.97,10.0,SSE,6.9,-,N/A,,Scattered Clouds,160,2012-10-23 22:34:00
7:14 PM,59.0,55.4,88,29.97,10.0,South,6.9,-,N/A,,Mostly Cloudy,190,2012-10-23 23:14:00
7:34 PM,60.8,57.2,88,29.98,10.0,SSW,6.9,-,N/A,,Mostly Cloudy,200,2012-10-23 23:34:00
7:54 PM,62.6,57.2,82,29.98,10.0,South,5.8,-,N/A,,Overcast,190,2012-10-23 23:54:00
8:14 PM,60.8,57.2,88,29.99,10.0,South,6.9,-,N/A,,Overcast,190,2012-10-24 00:14:00
8:34 PM,60.8,57.2,88,29.99,10.0,SSW,3.5,-,N/A,,Overcast,210,2012-10-24 00:34:00
8:54 PM,60.8,57.2,88,29.98,10.0,Calm,Calm,-,N/A,,Overcast,0,2012-10-24 00:54:00
9:15 PM,60.8,57.2,88,29.98,10.0,Calm,Calm,-,N/A,,Overcast,0,2012-10-24 01:15:00
9:34 PM,60.8,55.4,82,29.98,10.0,South,3.5,-,N/A,,Scattered Clouds,170,2012-10-24 01:34:00
9:54 PM,59.0,55.4,88,29.98,7.0,South,5.8,-,N/A,,Clear,190,2012-10-24 01:54:00
10:15 PM,59.0,55.4,88,29.99,7.0,South,4.6,-,N/A,,Scattered Clouds,190,2012-10-24 02:15:00
10:34 PM,60.8,57.2,88,29.99,10.0,South,3.5,-,N/A,,Mostly Cloudy,190,2012-10-24 02:34:00
10:54 PM,60.8,57.2,88,30.00,10.0,SSW,3.5,-,N/A,,Mostly Cloudy,210,2012-10-24 02:54:00
11:14 PM,62.6,57.2,82,30.00,10.0,Calm,Calm,-,N/A,,Mostly Cloudy,0,2012-10-24 03:14:00
11:34 PM,60.8,57.2,88,30.00,10.0,Calm,Calm,-,N/A,,Overcast,0,2012-10-24 03:34:00
11:54 PM,62.6,57.2,82,30.00,10.0,SSW,4.6,-,N/A,,Overcast,210,2012-10-24 03:54:00